Vertical_Velocity
-6 -0 0 7 3 6 -2 -1 1 7 6 6 -0 3 6 9 11 1 -0 -0 -1 -2 -0 -2 -1 -2 -1 -2 -2 -2 -1 -1 -2 -2 0 3 -1 -5 -4 -1 -0 0 4 1 -1 -0 -5 7 -3 -5 -4 0 -3 -1
-4 3 2 11 1 -0 3 10 11 4 1 2 12 5 13 6 -0 -1 -4 0 -2 -2 -1 -2 -1 -1 -1 1 -2 -2 -1 -1 -4 -3 -5 -1 -2 -1 -3 -0 -4 4 1 -1 0 -6 -1 -1 2 -2 -3 -3 -1 -1
-4 4 9 1 -4 -3 11 13 8 5 -0 15 16 10 7 4 -2 -2 -3 -0 -2 -0 -1 -1 -2 -2 -1 -1 -1 -3 -1 1 -0 -1 -1 0 1 -2 -3 -2 -3 1 -1 1 4 1 9 2 -13 -2 7 5 5 3
-3 3 -0 -9 -5 9 10 -5 -2 12 11 8 10 4 1 2 -2 -2 1 1 0 -2 -1 -0 -1 -2 -2 -1 -0 -2 -1 -0 1 -1 -1 -1 2 -1 -1 -2 -3 -7 4 -9 8 7 1 -4 0 -5 4 3 -2 0
-1 4 -9 -4 -1 -2 8 11 -2 -2 11 13 9 4 -0 0 -1 -1 -0 -0 -0 -1 -1 1 -1 -3 -2 -0 -0 -2 -2 0 -1 -3 -1 -1 -1 1 1 0 -1 3 -3 -4 -4 -9 7 1 9 -1 -1 2 -0 -0
2 1 7 -1 -4 -4 13 9 2 -2 10 12 9 2 1 -1 -1 -1 -2 0 -0 -1 -1 -1 0 -2 -2 -1 -1 -1 -1 -2 -1 0 -1 -1 -0 2 3 2 1 -1 5 3 10 1 -1 2 -2 5 1 0 3 1
1 3 1 -3 0 1 18 7 4 -4 8 8 7 5 3 3 0 1 3 5 -2 -1 0 1 2 -3 -2 -2 -1 -1 -1 -1 -0 -2 -3 -2 -1 -0 -1 -2 2 -1 0 3 -2 -6 8 -9 -5 9 7 0 2 2
-3 3 2 -4 -0 3 7 5 2 -2 6 0 9 6 5 4 1 2 -0 -1 -2 -2 -2 0 -1 -4 -3 -2 -1 -1 -1 -2 -4 -1 -2 -3 -2 1 0 2 1 0 -3 -5 -4 2 -2 -3 -1 4 5 1 2 2
-3 1 2 2 -2 8 11 -1 -3 1 -1 3 6 7 5 2 0 2 0 -1 -3 -3 -1 1 -2 -5 -4 -1 -0 -1 1 0 -1 -1 -3 -4 -2 -3 -2 -1 -2 -5 -5 -6 -0 -3 -3 1 -3 -1 -3 5 4 1
1 2 1 5 2 6 5 -1 -1 -1 4 3 8 9 2 3 1 3 -3 -3 -3 0 -0 -0 -2 -4 -4 -2 0 -1 -0 -4 -4 -4 -3 -4 -3 -5 -3 -4 -3 -4 -6 -4 -2 2 0 2 2 1 -1 -0 1 -2
-2 -4 4 5 2 5 -1 -2 -1 -1 -4 0 4 1 2 3 5 4 0 -0 -0 -0 -1 0 -3 -4 -5 -2 0 -1 -3 -2 -0 -3 -0 -2 -2 -4 -2 -2 -0 -3 -5 -3 1 6 6 -1 -1 -1 -2 -2 0 1
-2 0 4 2 4 0 0 6 -3 1 7 9 11 6 6 -0 1 1 0 -3 -3 -3 -1 -3 -4 -3 -4 -2 -1 -3 -4 -2 -1 -2 -2 -3 -3 -4 -2 -1 -3 -2 -2 -1 -5 -1 2 3 -3 -2 -0 3 0 -2
-1 2 6 0 -1 1 3 1 2 2 4 10 -1 -2 5 8 -2 1 3 -2 -4 -3 1 -1 -2 -3 -3 -1 -0 1 -5 -3 -1 0 -3 -2 -4 -3 -2 -1 -2 -1 -1 -5 1 4 -2 1 3 -1 7 -1 5 2
0 -0 0 -3 3 -2 -7 7 2 -1 -0 0 6 4 1 3 3 6 -0 -4 -3 -4 -1 -1 -2 -3 -2 -0 1 -3 -3 -1 -3 -1 -3 -3 -5 -4 -2 -1 -2 1 -0 -2 -1 -2 5 -3 -2 10 1 3 4 0
4 5 3 -0 -5 2 4 8 4 4 5 3 6 -2 0 5 8 3 -0 -3 -4 -3 -1 -3 -1 -1 -1 -0 0 -4 -0 -1 -3 -2 -2 -2 -2 -3 -1 -1 -4 -4 -1 -1 -1 -3 3 4 2 2 -0 -3 -3 0
11 16 3 1 -2 9 9 4 3 6 7 3 1 4 6 5 1 -1 -1 -3 -3 -1 -1 -0 -2 -2 -1 -1 -2 -1 0 -1 -2 -4 -3 -2 -1 -2 -1 -3 -3 -5 -2 -2 -2 1 -0 0 -1 -2 0 1 -0 -0
7 -4 -8 -1 11 9 2 1 2 5 -1 -0 2 8 9 5 -2 1 -2 -3 -2 -2 -2 -2 -3 -4 1 -2 -1 1 -1 -1 -3 -2 -1 -2 -1 -1 -3 -3 -1 -2 -4 0 -0 1 2 -0 -1 -1 1 1 1 1
7 2 4 5 7 -8 5 -2 1 -3 -1 6 9 11 3 1 3 -2 -3 -1 -3 -3 -2 -1 -3 -2 -1 -0 -0 0 1 -3 -4 -2 -2 -2 -1 1 1 -1 2 1 2 2 3 -0 -1 3 1 -2 -3 -0 -0 -0
9 3 8 5 -3 3 1 2 1 -1 10 9 5 1 -0 1 -1 -1 -0 -2 -3 -3 -1 -3 -2 -2 -4 1 1 1 -1 -3 -3 -3 -2 -1 0 1 -1 0 -1 1 -0 2 3 1 1 -1 0 2 1 1 -0 2
13 16 2 -0 6 -3 1 -2 11 7 3 7 2 3 -0 -1 -2 -2 -3 -4 -3 -2 1 2 -6 -3 1 1 -2 -0 0 -1 -2 -2 -4 -4 0 2 2 -1 1 -1 -1 -2 -3 2 1 1 2 2 2 -1 -1 -1
10 2 12 15 15 18 7 8 4 5 6 2 1 -1 1 -1 -3 -3 -3 -2 0 4 -1 -4 0 -1 0 -3 -1 1 0 -1 -1 -1 -2 0 -1 2 -1 -2 -3 -1 -3 2 0 -3 -0 -1 3 2 -2 -2 1 -1
8 17 17 11 6 7 6 4 4 2 -2 -0 -0 1 -3 -3 -2 -2 -3 1 3 -4 0 1 -0 -1 -2 -3 -1 -1 -2 0 -0 -2 -2 -2 -2 -1 -0 -0 2 2 3 1 2 -1 -3 1 1 1 1 -1 2 1
8 8 7 7 5 1 1 2 2 -1 1 1 -1 -1 -1 -2 -1 -3 1 3 -2 -2 2 1 -0 -1 -1 0 -0 -0 -1 -1 -1 -1 -1 0 0 -1 -0 -2 -1 -0 3 4 1 -1 -2 1 3 3 4 1 0 0
7 5 5 6 3 0 5 3 2 -1 -0 -1 -1 -1 -3 -2 -1 -0 3 -3 -2 3 -0 -1 -2 -0 1 1 0 -0 -0 -1 -2 -2 -1 -2 -0 0 1 -1 -4 -2 -1 1 3 2 -1 0 2 1 2 2 -0 -2
4 0 -5 -4 -1 -3 -2 0 0 -2 -1 -2 -3 -1 -1 -2 -2 1 3 -2 2 1 -1 -3 -1 -0 -2 -1 -0 -2 -3 -2 -2 -0 -1 -2 -2 -0 -3 -1 1 -0 -1 3 3 2 -0 -1 1 3 3 3 1 1
2 -2 -5 0 -1 -5 -1 -3 -1 -1 -4 -2 1 1 -3 -3 -1 5 1 -2 -1 -3 -2 -1 -1 -0 -0 -0 -2 -2 -4 -3 -0 -1 -3 -2 0 4 2 1 -0 2 4 3 2 0 0 1 -1 -0 0 2 1 -1
-3 -2 -3 -0 2 1 -1 -2 -2 -1 1 3 3 -1 -1 -1 2 3 -3 -2 -3 -1 -1 -1 -1 -1 -3 -2 -3 -1 0 -2 -4 -2 2 1 2 4 4 1 -0 2 0 -1 -3 -0 3 1 1 -0 1 -1 -3 -1
1 2 1 1 -0 -1 -1 1 -0 0 1 3 -0 -1 -3 1 2 -5 -1 -0 -2 -1 -1 -1 -2 -1 -2 -2 -1 -0 1 -3 -2 -0 1 0 0 1 -2 -1 2 2 1 -1 -2 -1 -0 2 1 0 0 4 1 -5
4 2 0 -1 1 2 1 1 1 0 2 1 0 0 1 -2 -2 -2 -1 -1 -2 -2 -3 -1 1 0 -1 -0 2 2 -1 -2 -1 3 4 2 0 -1 -4 -3 -1 1 3 5 -2 -1 2 0 -1 -2 0 2 -0 -1
0 -1 1 2 0 2 2 -1 -0 0 1 0 0 -0 -3 -3 -2 -1 -1 -3 -2 -1 -2 -3 -1 0 2 -0 -2 -0 -1 2 4 3 4 5 -1 -2 -3 -1 -2 -4 -3 -3 -0 -1 -6 -2 0 0 -0 4 -0 -4
1 3 2 3 3 0 1 1 0 -2 -1 -1 -1 -1 -2 -2 -0 -4 -4 -2 -1 -1 -0 -0 0 -1 -0 -1 -2 -1 -4 -2 -1 2 2 0 -3 -4 -2 -0 -0 -0 0 1 -1 -2 0 0 -4 -3 -2 1 0 -0
-2 -1 0 3 3 4 4 2 -0 -2 -2 -2 -2 -2 -3 -2 -4 -2 -1 -1 -1 -1 -2 -1 -0 -2 -1 1 1 -0 0 -0 -1 -2 -3 -3 -2 -3 -2 0 -2 -1 -1 -0 -2 -3 -3 -1 2 -2 -2 1 -0 1
-0 1 2 2 2 2 -1 -3 -3 -1 -1 -3 -4 -2 -2 -2 0 -4 -5 -4 -1 -3 -2 2 2 -2 -2 -1 -2 -2 -2 -4 -4 -2 -0 -1 -0 0 0 -1 -1 -0 0 -2 -2 -1 -0 -0 2 1 1 2 1 1
Height
5401 5418 5436 5455 5474 5491 5507 5529 5540 5556 5570 5582 5594 5604 5612 5618 5623 5628 5633 5636 5639 5641 5642 5641 5641 5639 5636 5632 5629 5626 5623 5618 5613 5607 5600 5592 5584 5578 5574 5573 5574 5573 5575 5576 5577 5579 5582 5583 5585 5587 5589 5590 5593 5596
5401 5417 5434 5453 5471 5491 5510 5525 5540 5553 5565 5578 5590 5599 5606 5613 5618 5622 5627 5631 5635 5637 5638 5637 5636 5634 5631 5627 5624 5622 5620 5615 5610 5605 5598 5590 5583 5576 5574 5573 5571 5571 5572 5571 5573 5576 5576 5576 5578 5579 5582 5585 5588 5590
5400 5415 5434 5451 5470 5489 5509 5525 5537 5548 5560 5573 5584 5593 5601 5607 5613 5618 5622 5626 5629 5632 5633 5633 5631 5629 5627 5623 5621 5619 5616 5612 5607 5602 5596 5589 5583 5575 5573 5572 5571 5569 5568 5569 5568 5570 5570 5570 5572 5575 5577 5579 5582 5584
5400 5414 5432 5451 5470 5489 5504 5515 5530 5545 5557 5569 5580 5587 5595 5602 5608 5613 5618 5621 5624 5627 5629 5629 5626 5625 5622 5619 5616 5614 5612 5607 5602 5597 5592 5586 5579 5573 5571 5569 5567 5565 5565 5565 5562 5562 5561 5564 5568 5570 5572 5572 5575 5577
5402 5419 5434 5453 5471 5488 5505 5518 5528 5541 5554 5566 5575 5583 5591 5598 5603 5608 5613 5617 5619 5623 5624 5623 5621 5620 5617 5614 5612 5610 5607 5603 5599 5594 5589 5584 5577 5571 5567 5564 5560 5557 5554 5551 5550 5545 5549 5555 5559 5563 5564 5567 5569 5571
5402 5417 5437 5455 5471 5485 5502 5514 5527 5538 5552 5562 5572 5579 5586 5592 5598 5604 5609 5612 5614 5616 5618 5617 5616 5615 5613 5610 5608 5605 5603 5599 5597 5592 5586 5580 5574 5568 5563 5558 5554 5549 5544 5536 5532 5530 5536 5544 5550 5556 5559 5561 5564 5566
5401 5417 5437 5455 5471 5486 5501 5515 5525 5536 5549 5559 5568 5575 5582 5588 5594 5600 5606 5608 5610 5611 5612 5612 5610 5609 5607 5605 5603 5601 5599 5596 5593 5587 5582 5576 5570 5565 5558 5552 5548 5542 5534 5526 5519 5517 5524 5533 5540 5547 5553 5556 5559 5561
5401 5419 5437 5455 5471 5485 5499 5512 5523 5534 5546 5556 5565 5572 5579 5584 5590 5596 5599 5601 5604 5606 5606 5605 5604 5604 5603 5601 5599 5596 5594 5591 5587 5583 5578 5572 5566 5560 5555 5549 5543 5537 5530 5522 5515 5514 5519 5528 5535 5541 5546 5551 5554 5557
5403 5421 5438 5456 5472 5485 5498 5510 5522 5532 5543 5554 5562 5569 5575 5581 5586 5591 5594 5597 5599 5602 5599 5598 5598 5599 5598 5596 5594 5592 5589 5586 5584 5579 5574 5568 5562 5557 5551 5545 5539 5534 5529 5523 5517 5517 5521 5527 5533 5538 5541 5546 5550 5552
5406 5422 5440 5458 5472 5486 5498 5509 5521 5531 5543 5551 5560 5566 5571 5577 5583 5587 5589 5592 5593 5593 5594 5593 5593 5593 5594 5591 5588 5587 5584 5580 5577 5574 5569 5563 5558 5552 5546 5541 5537 5533 5529 5523 5521 5518 5522 5526 5532 5536 5539 5542 5545 5547
5410 5427 5444 5460 5473 5486 5498 5508 5519 5530 5539 5547 5555 5561 5568 5573 5578 5581 5584 5587 5587 5588 5588 5587 5588 5587 5586 5585 5583 5582 5578 5576 5573 5570 5565 5559 5554 5549 5543 5540 5536 5533 5529 5525 5521 5518 5521 5526 5529 5533 5536 5539 5541 5542
5414 5431 5447 5461 5475 5487 5498 5510 5519 5528 5539 5547 5553 5558 5563 5567 5571 5575 5578 5581 5582 5583 5583 5582 5581 5580 5579 5579 5577 5576 5575 5571 5568 5565 5560 5556 5551 5546 5540 5537 5535 5532 5528 5525 5522 5522 5522 5525 5528 5530 5532 5535 5536 5538
5420 5436 5451 5464 5476 5487 5499 5508 5517 5527 5535 5542 5547 5551 5557 5562 5565 5568 5571 5574 5575 5576 5576 5576 5576 5574 5573 5573 5571 5570 5570 5566 5563 5559 5555 5552 5547 5541 5537 5534 5532 5530 5527 5524 5521 5520 5522 5523 5525 5527 5528 5529 5531 5532
5425 5440 5453 5465 5476 5487 5497 5507 5515 5523 5530 5536 5542 5546 5551 5555 5559 5562 5564 5567 5569 5569 5569 5568 5567 5567 5566 5565 5565 5564 5564 5561 5558 5555 5551 5547 5543 5538 5533 5530 5528 5527 5525 5524 5521 5520 5520 5521 5522 5524 5525 5525 5525 5525
5431 5444 5456 5466 5477 5487 5497 5505 5512 5519 5526 5530 5536 5540 5545 5550 5553 5555 5558 5560 5562 5562 5561 5560 5560 5560 5559 5559 5559 5559 5557 5555 5553 5549 5546 5542 5538 5533 5528 5524 5524 5523 5522 5521 5520 5519 5519 5519 5519 5519 5519 5519 5518 5518
5434 5446 5456 5467 5476 5486 5493 5501 5509 5515 5520 5525 5530 5535 5539 5543 5545 5548 5551 5552 5553 5553 5552 5553 5553 5552 5551 5552 5553 5552 5552 5549 5546 5542 5539 5536 5532 5527 5522 5520 5519 5518 5517 5517 5516 5514 5513 5514 5514 5513 5513 5512 5511 5511
5436 5445 5456 5466 5475 5482 5489 5497 5504 5510 5514 5519 5524 5529 5533 5536 5538 5541 5543 5545 5545 5545 5545 5545 5545 5544 5545 5544 5546 5546 5545 5542 5538 5535 5533 5529 5526 5521 5517 5514 5513 5513 5512 5512 5511 5509 5507 5508 5507 5508 5508 5508 5507 5507
5442 5449 5458 5466 5473 5478 5486 5492 5498 5503 5508 5514 5518 5522 5525 5528 5531 5533 5535 5536 5537 5537 5538 5537 5537 5537 5536 5537 5538 5539 5537 5534 5531 5528 5526 5523 5519 5514 5509 5507 5507 5506 5505 5504 5505 5504 5503 5503 5503 5503 5503 5503 5503 5503
5444 5450 5457 5463 5468 5475 5481 5487 5493 5497 5502 5508 5512 5515 5518 5521 5524 5526 5528 5528 5528 5529 5530 5529 5530 5528 5527 5530 5531 5530 5527 5525 5522 5520 5518 5515 5511 5505 5501 5500 5499 5498 5497 5496 5497 5497 5497 5497 5497 5496 5496 5496 5496 5497
5443 5449 5453 5457 5465 5470 5475 5481 5488 5492 5498 5502 5506 5509 5512 5515 5517 5518 5519 5519 5520 5521 5520 5521 5518 5518 5522 5523 5522 5521 5519 5516 5514 5511 5508 5505 5501 5496 5493 5491 5489 5488 5488 5487 5487 5488 5488 5488 5488 5488 5488 5488 5489 5489
5439 5443 5451 5456 5461 5467 5471 5476 5482 5489 5493 5496 5499 5502 5506 5508 5510 5511 5511 5510 5511 5512 5511 5510 5511 5513 5514 5514 5513 5511 5509 5507 5505 5502 5500 5496 5491 5486 5484 5482 5481 5480 5480 5479 5478 5477 5477 5477 5478 5478 5479 5479 5479 5480
5434 5441 5446 5450 5455 5461 5467 5472 5478 5482 5487 5490 5493 5495 5498 5500 5501 5502 5502 5502 5504 5502 5502 5504 5505 5506 5506 5505 5503 5501 5499 5498 5495 5492 5489 5485 5481 5477 5475 5474 5473 5471 5470 5469 5469 5469 5468 5467 5467 5467 5468 5468 5468 5468
5430 5436 5440 5445 5451 5456 5462 5467 5471 5475 5480 5482 5485 5487 5489 5491 5493 5493 5493 5495 5494 5493 5496 5497 5497 5497 5497 5495 5493 5492 5490 5488 5485 5482 5478 5474 5469 5466 5465 5463 5462 5461 5460 5459 5458 5458 5458 5458 5457 5457 5457 5457 5457 5456
5428 5433 5437 5442 5447 5452 5459 5463 5467 5470 5472 5474 5477 5479 5481 5483 5483 5483 5485 5485 5486 5487 5488 5489 5489 5488 5487 5485 5483 5482 5480 5477 5474 5470 5466 5462 5459 5457 5456 5454 5452 5451 5451 5450 5450 5450 5449 5449 5448 5448 5448 5447 5447 5445
5427 5430 5435 5440 5445 5450 5454 5457 5459 5461 5464 5467 5468 5470 5471 5473 5474 5476 5477 5478 5479 5479 5480 5480 5479 5478 5476 5475 5473 5471 5469 5466 5463 5459 5455 5452 5450 5448 5446 5445 5444 5444 5443 5443 5442 5442 5441 5441 5441 5440 5439 5438 5437 5435
5421 5425 5431 5435 5439 5443 5446 5448 5451 5452 5454 5456 5458 5460 5461 5464 5466 5469 5469 5469 5470 5471 5471 5470 5469 5468 5466 5464 5462 5460 5457 5454 5450 5447 5445 5443 5441 5439 5437 5437 5437 5437 5437 5436 5435 5434 5433 5433 5432 5431 5430 5429 5428 5427
5414 5419 5424 5427 5430 5433 5435 5438 5440 5442 5444 5447 5449 5451 5454 5456 5459 5460 5460 5461 5462 5462 5461 5460 5459 5457 5455 5453 5450 5447 5444 5441 5440 5438 5436 5434 5433 5433 5432 5431 5430 5429 5428 5427 5426 5425 5424 5422 5421 5420 5420 5418 5417 5417
5406 5410 5414 5417 5420 5423 5426 5429 5431 5434 5437 5440 5442 5444 5447 5450 5452 5452 5453 5453 5453 5453 5451 5450 5448 5446 5443 5441 5438 5436 5433 5431 5430 5428 5427 5426 5424 5423 5422 5421 5420 5419 5418 5416 5414 5412 5410 5409 5408 5407 5407 5406 5405 5404
5399 5403 5407 5410 5414 5416 5419 5423 5425 5428 5431 5433 5436 5438 5440 5441 5442 5443 5444 5443 5443 5442 5440 5438 5436 5434 5432 5430 5428 5426 5424 5423 5421 5419 5417 5415 5414 5413 5410 5409 5407 5405 5403 5401 5398 5396 5395 5394 5392 5391 5390 5389 5387 5387
5393 5397 5401 5404 5408 5411 5414 5416 5419 5422 5424 5427 5429 5431 5432 5433 5434 5434 5434 5433 5432 5430 5429 5427 5425 5423 5422 5419 5418 5416 5414 5412 5411 5409 5407 5404 5402 5399 5396 5394 5392 5390 5387 5385 5382 5378 5375 5373 5371 5369 5368 5366 5364 5363
5388 5392 5396 5399 5402 5404 5407 5410 5412 5415 5418 5420 5421 5423 5424 5425 5425 5424 5424 5422 5421 5419 5418 5416 5415 5413 5412 5410 5408 5405 5404 5402 5400 5397 5395 5392 5389 5386 5383 5379 5376 5372 5368 5364 5360 5355 5351 5347 5344 5342 5340 5338 5336 5335
5382 5386 5390 5393 5395 5399 5401 5403 5406 5409 5411 5412 5413 5414 5415 5415 5415 5415 5413 5412 5411 5410 5408 5407 5405 5403 5402 5401 5399 5396 5393 5391 5388 5385 5383 5379 5375 5370 5365 5359 5354 5349 5343 5338 5332 5327 5323 5321 5319 5316 5316 5315 5314 5314
5376 5380 5383 5387 5390 5392 5395 5398 5399 5401 5403 5404 5405 5405 5405 5405 5404 5404 5403 5403 5402 5401 5400 5399 5397 5395 5394 5391 5388 5386 5383 5379 5375 5371 5367 5361 5356 5350 5344 5337 5332 5327 5322 5316 5311 5306 5301 5297 5294 5291 5289 5288 5287 5288